Helena, MT

6:26 PM MDT on August 25, 2016 (GMT -0600)
Helena Regional

Weather History for KHLN - November, 2014

Change the Weather History Date:

Thursday, November 6, 2014

  Actual Average Record
Temperature  
Mean Temperature 54 °F 37 °F  
Max Temperature 65 °F 48 °F 69 °F (2006)
Min Temperature 42 °F 26 °F 1 °F (1971)
Degree Days  
Heating Degree Days 11 28  
Month to date heating degree days 110 162  
Since 1 July heating degree days 734 1070  
Cooling Degree Days 0 0  
Month to date cooling degree days 0 0  
Year to date cooling degree days 469 406  
Growing Degree Days 3 (Base 50)    
Moisture  
Dew Point 36 °F    
Average Humidity 52    
Maximum Humidity 76    
Minimum Humidity 28    
Precipitation  
Precipitation T in 0.02 in 0.46 in (1973)
Month to date precipitation 0.16 0.09  
Year to date precipitation 10.52 10.42  
Snow  
Snow 0.00 in 0.10 in 14.00 in (1945)
Month to date snowfall T 0.6  
Since 1 July snowfall T 4.6  
Since 1 September snowfall T 4.3  
Snow Depth 0.00 in    
Sea Level Pressure  
Sea Level Pressure 30.11 in    
Wind  
Wind Speed 6 mph (West)    
Max Wind Speed 23 mph    
Max Gust Speed 35 mph    
Visibility 10 miles    
Events      
T = Trace of Precipitation, MM = Missing Value Source: NWS Daily Summary

Daily Weather History Graph

Daily Weather History Graph

Search for Another Location

Airport or City:

Trip Planner

Search our weather history database for the weather conditions in past years. The results will help you decide how hot, cold, wet, or windy it might be!

Date:

Astronomy

Nov. 06, 2014 Rise Set
Actual Time 7:17 AM MST 5:05 PM MST
Civil Twilight 6:45 AM MST 5:37 PM MST
Nautical Twilight 6:09 AM MST 6:13 PM MST
Astronomical Twilight 5:33 AM MST 6:48 PM MST
Moon 5:16 PM MST (11/6) 6:50 AM MST (11/6)
Length of Visible Light 10h 52m
Length of Day
9h 48m
Full, 100% of the Moon is Illuminated
Nov 6
Full
Nov 6
Full
Nov 14
Last Quarter
Nov 22
New
Nov 29
First Quarter

Hourly Weather History & Observations

Time (MST) Temp. Windchill Dew Point Humidity Pressure Visibility Wind Dir Wind Speed Gust Speed Precip Events Conditions
12:53 AM 44.1 °F 40.8 °F 36.0 °F 73% 30.34 in 10.0 mi WSW 5.8 mph - N/A   Partly Cloudy
1:53 AM 45.0 °F - 37.0 °F 74% 30.31 in 10.0 mi Calm Calm - N/A   Partly Cloudy
2:53 AM 44.1 °F 42.5 °F 36.0 °F 73% 30.30 in 10.0 mi SW 3.5 mph - N/A   Clear
3:53 AM 44.1 °F - 36.0 °F 73% 30.28 in 10.0 mi Calm Calm - N/A   Clear
4:53 AM 44.1 °F 41.5 °F 36.0 °F 73% 30.28 in 10.0 mi WSW 4.6 mph - N/A   Clear
5:53 AM 44.1 °F - 36.0 °F 73% 30.26 in 10.0 mi Calm Calm - N/A   Partly Cloudy
6:53 AM 43.0 °F 40.3 °F 36.0 °F 76% 30.26 in 10.0 mi West 4.6 mph - N/A   Partly Cloudy
7:53 AM 43.0 °F 41.3 °F 36.0 °F 76% 30.26 in 10.0 mi West 3.5 mph - N/A   Partly Cloudy
8:53 AM 46.0 °F - 36.0 °F 68% 30.22 in 10.0 mi Calm Calm - N/A   Clear
9:53 AM 46.9 °F - 35.1 °F 63% 30.21 in 10.0 mi WNW 4.6 mph - N/A   Clear
10:53 AM 48.9 °F - 35.1 °F 59% 30.17 in 10.0 mi WNW 4.6 mph - N/A   Partly Cloudy
11:53 AM 52.0 °F - 36.0 °F 54% 30.14 in 10.0 mi WNW 5.8 mph - N/A   Clear
12:53 PM 53.1 °F - 36.0 °F 52% 30.09 in 10.0 mi WNW 8.1 mph - N/A   Clear
1:53 PM 57.9 °F - 36.0 °F 44% 30.05 in 10.0 mi NW 5.8 mph - N/A   Clear
2:53 PM 59.0 °F - 35.1 °F 41% 30.01 in 10.0 mi Calm Calm - N/A   Scattered Clouds
3:53 PM 59.0 °F - 37.0 °F 44% 29.97 in 10.0 mi NNW 5.8 mph - N/A   Scattered Clouds
4:53 PM 64.0 °F - 30.9 °F 29% 29.95 in 10.0 mi SSW 12.7 mph 20.7 mph N/A   Clear
5:53 PM 62.1 °F - 30.9 °F 31% 29.91 in 10.0 mi South 13.8 mph - N/A   Clear
6:53 PM 57.0 °F - 33.1 °F 40% 29.94 in 10.0 mi Variable 3.5 mph - N/A   Partly Cloudy
7:53 PM 61.0 °F - 32.0 °F 34% 29.93 in 10.0 mi SSE 4.6 mph - N/A   Clear
8:53 PM 63.0 °F - 32.0 °F 31% 29.89 in 10.0 mi SW 5.8 mph 17.3 mph N/A   Clear
9:53 PM 57.0 °F - 37.9 °F 49% 29.92 in 10.0 mi NW 13.8 mph - N/A   Clear
10:53 PM 55.0 °F - 39.0 °F 55% 29.97 in 10.0 mi WNW 10.4 mph 16.1 mph N/A   Partly Cloudy
11:53 PM 50.0 °F - 44.1 °F 80% 30.02 in 10.0 mi WNW 13.8 mph - 0.00 in   Mostly Cloudy